RH
100 100 100 100 100 100 100 100 98 100 100 100 94 80 76 79 92 88 74 61 90 63 17 9 7 7 7 8 6 7 8 12 12 5 3 3 3 9 31 74 95 90 95 77
87 100 100 100 100 100 100 100 100 100 100 86 74 72 78 85 69 58 95 73 28 9 7 8 6 7 11 7 6 6 7 8 7 4 3 3 3 7 41 63 59 64 82 79
41 73 99 100 100 100 100 100 100 97 97 79 78 81 90 97 88 82 49 17 8 6 7 7 10 27 22 7 5 4 4 4 3 3 3 4 3 3 38 78 50 71 67 92
33 43 69 96 100 98 100 100 100 90 95 87 93 96 92 95 94 69 62 53 12 11 40 27 14 10 7 6 5 4 4 3 3 4 4 4 4 3 9 71 65 63 81 95
26 31 35 60 97 99 95 82 92 98 98 100 100 100 89 97 100 98 77 61 22 35 42 10 9 7 6 6 5 4 4 4 4 4 5 6 5 4 3 7 28 48 90 79
28 27 28 31 35 76 91 93 79 85 83 93 88 76 82 86 84 96 81 59 47 16 8 8 7 7 6 6 5 4 4 5 6 5 7 6 5 4 5 8 19 44 80 97
34 30 27 27 28 31 51 66 100 81 65 68 78 50 30 23 23 24 27 12 11 10 9 8 8 7 6 6 5 5 6 7 9 8 9 7 6 4 7 12 40 67 80 95
45 35 31 29 27 25 26 23 23 28 32 29 27 35 26 20 17 15 13 12 11 10 9 8 8 6 6 5 5 7 10 12 20 19 18 7 7 13 14 37 85 87 90 100
99 54 38 34 31 31 26 25 20 18 16 15 16 15 14 14 14 13 12 13 10 10 9 9 8 7 6 5 7 9 18 55 76 58 17 12 36 62 96 89 89 91 93 100
100 100 82 40 35 34 31 27 28 25 21 18 19 17 17 17 14 13 13 14 11 11 10 11 9 7 7 9 10 14 30 76 66 35 65 66 99 100 96 93 96 96 91 75
100 100 100 98 65 42 36 30 31 28 23 18 20 18 17 20 20 21 21 20 16 13 12 11 9 8 12 12 11 13 51 58 39 81 100 99 100 98 98 100 100 94 69 48
100 100 100 100 100 98 76 43 40 35 30 23 20 20 21 22 22 22 20 20 18 15 13 11 10 13 16 14 10 19 55 50 89 99 100 100 100 100 100 96 93 76 46 29
78 100 100 100 100 100 100 99 100 97 92 82 78 69 86 78 64 42 33 29 19 17 13 64 20 20 23 19 12 18 49 49 98 100 100 100 100 100 100 100 98 80 70 68
30 94 100 100 100 100 100 100 100 100 100 99 99 100 95 100 100 100 93 47 21 15 14 18 22 22 24 22 22 30 34 80 100 99 100 96 100 100 100 100 99 99 67 23
23 53 97 100 100 100 100 100 98 100 100 93 94 99 100 100 100 97 79 34 17 17 27 26 27 30 33 32 26 15 83 100 100 99 100 97 100 100 98 95 89 75 17 12
22 20 41 82 100 100 100 100 94 100 100 92 87 79 100 99 97 84 78 26 19 25 31 33 31 55 66 59 41 35 100 100 100 100 100 90 97 99 98 99 67 17 13 12
23 19 18 21 37 61 99 91 70 73 48 43 40 88 93 90 82 72 71 29 27 34 37 41 66 83 100 75 26 99 100 100 100 100 100 99 99 97 95 76 16 14 13 12
26 24 20 20 27 40 60 42 45 58 50 23 18 85 95 87 84 88 66 48 44 37 32 43 71 100 95 33 52 100 100 100 99 95 97 100 99 97 41 13 14 13 12 18
24 28 30 47 77 82 96 75 73 72 53 18 35 97 100 100 98 92 68 36 27 28 25 30 92 83 46 60 99 100 95 91 88 98 100 95 80 16 13 13 12 12 17 25
75 98 98 60 37 66 100 85 94 51 22 37 74 91 98 83 57 37 31 25 32 71 69 84 79 38 68 100 100 99 98 86 96 100 99 55 14 14 13 10 10 14 23 30
100 81 71 70 100 100 81 74 68 55 66 76 93 96 77 67 41 34 34 54 93 87 85 96 70 78 100 93 91 95 91 97 100 84 29 12 12 9 8 9 11 19 28 34
86 48 65 78 95 94 87 63 62 50 56 75 75 55 49 37 61 96 100 100 100 99 100 92 71 100 96 87 90 99 99 100 67 22 10 9 8 7 9 13 18 23 28 42
98 31 31 31 55 74 40 33 36 45 54 46 43 39 32 41 51 98 100 95 93 84 79 78 99 99 94 93 97 100 80 28 11 9 8 6 7 10 13 13 15 24 37 51
22 24 21 37 30 28 33 38 39 31 27 21 21 29 45 70 65 63 75 80 89 91 95 100 100 97 94 99 76 22 13 9 8 7 6 8 10 10 13 23 32 39 44 58
27 28 31 34 37 40 38 23 27 23 18 37 54 77 100 100 100 100 97 96 91 88 100 99 93 82 70 24 13 9 7 7 6 7 9 10 13 18 27 38 51 60 70 81
31 25 18 17 14 16 23 42 59 82 98 100 100 100 100 100 100 96 88 84 92 100 100 52 49 56 30 12 7 7 6 7 9 11 12 14 18 22 31 47 62 68 76 88
70 62 68 63 77 81 84 90 96 99 100 100 100 100 95 88 88 92 98 98 100 98 69 77 35 11 9 7 7 7 8 10 11 12 14 15 22 30 44 59 66 76 86 92
Wind_Speed
53 56 59 58 58 58 59 59 57 54 55 56 53 46 46 45 47 43 39 40 40 39 38 36 35 35 35 36 35 35 37 41 40 38 34 32 33 33 35 34 31 31 37 42
59 54 52 52 52 55 56 56 54 54 53 52 51 50 48 48 42 40 39 37 37 38 37 36 35 34 33 33 35 39 39 43 43 39 36 36 35 34 34 36 35 38 36 35
57 56 53 50 50 49 52 52 54 55 51 49 50 50 48 46 41 39 39 38 38 37 34 33 35 35 36 37 37 38 41 41 41 41 39 38 37 35 35 36 38 41 38 33
59 57 55 52 51 49 52 50 45 45 42 39 40 40 41 38 38 39 39 38 35 33 36 38 36 37 39 39 37 37 39 40 42 40 39 41 39 38 37 37 40 43 39 38
62 60 58 54 52 52 50 46 43 43 41 39 37 37 37 36 36 36 35 36 35 39 39 38 39 40 40 39 38 38 39 40 40 39 41 42 41 39 38 39 40 43 42 38
61 61 61 59 59 56 51 48 47 42 40 39 39 36 36 34 35 35 37 39 40 40 38 41 41 39 36 36 36 38 41 43 42 41 43 42 45 35 37 39 39 41 40 28
61 61 61 59 59 57 56 49 49 49 48 45 42 42 42 42 41 41 41 41 40 39 40 40 39 37 35 34 34 38 41 39 43 44 44 42 38 35 34 36 36 39 36 27
63 62 61 57 57 56 54 53 53 51 50 50 48 46 44 43 43 41 40 39 38 41 39 38 36 34 31 30 35 37 36 38 40 43 39 37 34 32 33 33 28 33 30 29
66 62 63 60 58 56 55 53 52 51 49 47 46 44 43 42 42 41 39 39 40 38 37 35 33 31 30 34 35 33 33 33 37 38 36 35 28 30 29 30 22 26 29 29
63 66 64 61 60 58 57 55 53 53 52 48 47 44 41 40 40 39 39 38 38 35 34 33 32 31 34 36 33 33 32 31 33 32 34 35 26 26 28 31 26 28 23 24
55 60 62 63 59 57 58 56 55 54 55 51 49 48 47 44 43 41 39 38 37 34 32 33 33 34 35 34 31 31 31 32 26 29 24 15 15 20 22 19 21 20 20 22
55 53 57 59 61 58 55 53 52 53 52 51 49 46 44 43 43 43 42 39 37 36 34 34 37 36 33 32 32 29 32 28 30 26 13 12 14 8 16 16 18 19 21 22
60 51 50 53 55 54 54 54 53 53 52 51 51 47 43 43 43 40 38 35 36 35 33 32 36 34 33 32 31 31 29 29 30 28 17 20 22 22 20 20 20 19 21 25
61 57 51 49 49 49 51 52 49 49 47 49 45 45 41 40 41 39 37 35 37 37 35 35 34 35 34 32 32 28 27 28 27 24 17 19 25 26 25 23 24 23 24 26
53 58 55 50 47 44 40 40 44 42 41 40 40 39 37 39 39 37 37 37 36 35 35 33 32 31 32 30 28 22 26 29 29 27 23 25 23 26 27 25 26 25 25 27
48 52 55 53 49 42 41 52 50 42 38 37 35 33 38 40 41 41 39 39 37 38 33 31 28 23 29 33 26 22 27 31 30 27 29 28 27 27 29 27 25 26 27 29
40 43 47 51 49 46 52 52 46 43 43 41 37 34 37 42 43 43 40 40 36 34 34 32 27 25 29 32 24 22 30 33 27 27 30 29 29 29 27 26 26 27 29 28
38 39 40 44 49 52 56 54 49 41 41 44 44 42 39 36 39 37 36 34 35 34 35 32 25 29 33 29 22 26 31 27 22 24 24 21 23 23 24 25 27 28 28 26
36 36 38 44 51 55 51 48 37 38 43 45 45 42 40 28 32 32 32 30 31 30 31 32 33 32 27 25 29 29 30 25 23 20 19 20 20 21 24 26 28 28 26 25
34 35 42 48 49 46 50 40 38 38 42 44 42 38 34 28 29 28 30 30 29 23 23 30 33 30 26 28 31 30 26 23 19 20 19 19 22 24 26 28 28 26 25 25
37 36 42 44 43 41 43 41 38 36 36 37 33 32 30 29 27 25 28 28 26 23 22 25 28 20 25 34 28 25 22 18 18 17 18 21 23 25 27 25 25 24 25 25
22 28 30 41 43 45 44 41 38 37 33 32 32 28 30 29 24 24 28 27 27 26 25 27 21 17 24 23 20 17 16 16 16 18 20 22 23 23 22 23 24 25 26 26
26 32 38 47 52 50 44 42 37 33 30 28 29 29 27 28 28 32 32 31 28 24 23 21 16 18 18 17 15 13 13 14 17 19 20 20 19 20 21 21 21 20 21 23
41 44 49 51 44 36 30 27 24 22 21 23 25 25 25 24 28 30 31 29 23 21 15 8 11 15 14 13 12 12 13 15 17 16 16 16 16 16 16 16 16 16 17 19
39 40 40 36 33 35 33 29 25 27 26 22 20 22 23 21 24 28 27 22 22 12 5 11 10 9 10 10 11 12 13 13 13 12 13 13 14 16 17 17 17 18 20 21
30 29 28 26 23 24 25 25 23 19 17 15 16 19 23 25 26 22 21 22 11 7 9 7 8 9 10 11 11 11 11 10 10 11 12 14 16 17 18 18 19 20 22 23
20 19 20 20 14 12 12 13 12 14 15 15 15 16 15 19 23 22 14 8 9 11 8 9 9 9 9 9 9 9 9 10 11 12 14 16 18 19 20 20 19 19 21 22
Wind_Direction
235 236 233 238 238 239 242 244 245 243 244 246 251 255 253 249 252 251 249 249 254 256 258 262 267 271 276 280 281 283 285 286 285 286 287 287 288 285 275 284 281 285 276 282
243 240 236 232 234 234 236 240 241 241 240 246 251 252 251 248 243 244 247 250 250 254 257 261 263 267 271 274 277 280 283 284 287 289 290 287 286 287 281 280 284 277 291 281
237 240 239 236 231 232 231 236 238 239 238 241 244 245 243 243 238 244 247 249 252 254 259 262 265 269 272 272 272 276 280 284 288 289 289 285 280 281 277 278 281 290 287 289
230 232 236 238 239 239 233 233 227 228 230 234 238 242 241 236 236 239 246 251 257 261 262 261 265 268 271 274 276 277 278 282 283 286 287 283 283 275 273 276 287 285 287 286
227 229 229 231 238 236 236 239 239 230 230 231 231 231 228 230 237 244 255 257 256 256 260 265 265 266 274 278 282 283 283 283 284 287 284 282 279 272 276 276 278 283 283 289
226 226 227 226 228 232 239 236 238 238 239 240 242 244 245 250 253 254 255 254 256 257 259 263 268 273 275 280 281 283 283 284 285 284 281 280 274 275 274 279 280 280 280 276
225 225 226 225 227 229 234 237 233 236 237 239 242 244 246 246 247 248 250 253 257 260 263 266 269 273 277 279 281 278 280 282 281 284 285 277 273 271 275 282 282 279 279 272
222 224 225 225 225 227 228 233 236 235 238 241 240 241 242 244 247 249 253 255 256 258 263 268 272 274 276 276 277 281 280 281 286 284 280 274 270 276 277 282 282 275 271 259
221 222 224 225 226 227 228 229 233 235 235 236 239 239 240 240 243 244 245 247 253 257 259 264 267 270 270 273 277 276 281 280 277 279 278 274 277 276 281 279 273 267 260 257
226 223 221 225 226 228 229 230 233 236 236 235 237 239 241 241 242 243 245 248 252 256 259 263 265 268 271 275 278 277 281 271 270 276 279 281 280 272 271 267 267 263 267 266
227 226 225 222 223 227 228 230 232 234 239 237 237 238 239 240 242 244 246 248 252 257 260 262 263 265 268 272 273 283 276 266 267 264 280 287 283 263 267 267 267 264 263 266
222 218 224 224 223 223 224 225 229 231 232 237 238 236 239 240 241 243 244 247 250 253 257 261 261 264 267 269 272 274 265 265 272 270 249 276 289 264 276 266 262 265 272 278
225 215 217 221 221 223 226 227 226 229 231 234 239 240 238 238 237 239 241 245 246 247 246 243 255 262 262 266 272 271 261 267 270 263 239 276 280 258 266 268 270 281 284 286
222 216 215 214 216 217 221 227 225 227 230 232 232 237 236 237 238 238 237 237 240 240 239 246 255 261 265 264 271 265 259 264 269 249 253 265 264 265 272 280 282 284 288 290
214 214 215 216 216 212 208 226 226 226 226 227 225 228 230 230 232 231 232 232 232 232 236 243 249 256 261 263 265 263 260 269 266 248 259 260 272 273 277 280 284 288 293 297
207 210 212 213 215 215 202 212 226 227 230 229 223 220 224 227 224 224 225 228 228 230 237 242 246 249 261 268 267 265 265 270 275 255 243 255 264 278 277 284 289 291 297 302
196 202 205 208 208 203 206 220 229 231 232 229 221 214 228 228 226 224 222 228 231 235 234 236 238 243 259 265 261 272 274 278 269 254 254 260 265 270 277 283 288 293 300 304
184 188 191 192 194 201 210 223 226 222 224 218 207 207 221 226 225 222 222 229 231 232 229 228 232 252 258 259 272 270 276 270 254 248 256 261 264 271 280 287 292 299 303 301
176 179 182 185 187 195 199 213 209 207 210 202 200 205 213 216 213 216 219 222 223 223 228 223 240 251 260 275 270 268 272 256 251 251 252 264 275 281 286 291 297 299 299 298
167 174 180 182 188 191 197 203 199 196 200 200 199 204 202 201 205 209 212 215 214 217 219 235 250 258 265 267 266 263 251 244 251 253 260 271 273 283 289 293 295 296 294 289
162 174 177 177 179 182 185 183 185 187 201 195 194 189 191 198 198 198 210 208 211 229 241 254 253 261 264 255 255 247 237 242 248 257 270 278 283 287 289 293 294 291 287 285
153 148 162 167 168 168 166 169 178 188 193 186 182 185 186 188 188 200 202 212 220 238 250 261 277 263 253 250 243 228 233 244 258 269 275 280 284 288 292 293 291 288 286 281
148 152 159 162 159 164 171 176 176 171 170 174 180 181 186 194 199 199 207 219 228 243 262 285 279 247 238 232 231 233 244 258 269 276 280 283 287 291 294 294 296 298 295 290
148 154 159 162 167 168 167 164 168 161 169 177 184 187 191 198 210 213 215 224 235 260 287 256 213 215 221 225 237 250 262 268 272 275 281 288 295 298 305 313 314 313 309 301
148 157 161 166 164 167 173 170 160 156 162 166 178 190 196 201 209 212 219 236 252 264 268 208 208 222 233 243 252 260 264 269 277 287 294 301 310 317 318 313 308 305 299 292
158 167 169 169 165 160 155 152 157 164 165 175 188 195 204 209 213 227 247 253 252 275 225 221 228 233 244 251 258 264 273 281 288 294 307 315 318 316 313 311 306 302 296 291
151 150 152 161 165 165 154 165 174 176 175 181 196 207 216 230 241 249 254 219 205 199 215 231 237 245 254 259 267 273 280 289 298 308 315 317 315 311 311 308 305 305 304 299